Regional Weather Roundup
Issued by NWS

Home | Current Version | Previous Version | Graphics & Text | Print | Product List | Glossary On
Versions: 1 2 3 4 5 6 7 8 9 10 11 12 13 14 15 16 17 18 19 20 21 22 23 24 25 26 27 28 29 30 31 32 33 34 35 36 37 38 39 40 41 42 43 44 45 46 47 48 49 50
000
ASUS43 KLSX 190007
RWRMO

WEATHER SUMMARY FOR MISSOURI
NATIONAL WEATHER SERVICE SPRINGFIELD MO
600 PM CST THU JAN 18 2018

NOTE: "FAIR" INDICATES FEW OR NO CLOUDS BELOW 12,000 FEET WITH NO
       SIGNIFICANT WEATHER AND/OR OBSTRUCTIONS TO VISIBILITY.
       CURRENT SKY AND/OR WEATHER CONDITIONS ARE NOT AVAILABLE FOR
       CHILLICOTHE AND FARMINGTON.

MOZ001>031-035>038-043-044-053-054-190100-
...NORTHERN AND WESTERN MISSOURI...

CITY           SKY/WX    TMP DP  RH WIND       PRES   REMARKS
KANSAS CTY INT CLOUDY    34  22  61 S16       30.05F WCI  24
6HR MIN TEMP:  32; 6HR MAX TEMP:  39;

KANSAS C DTWN  CLOUDY    38  21  50 S7        30.08F
6HR MIN TEMP:  36; 6HR MAX TEMP:  43;

LEE`S SUMMIT   CLOUDY    34  22  61 S15       30.08F WCI  24
6HR MIN TEMP:  32; 6HR MAX TEMP:  41;

ST JOSEPH      CLOUDY    34  25  69 S9        30.04F WCI  27
6HR MIN TEMP:  31; 6HR MAX TEMP:  39;

CHILLICOTHE      N/A     35  21  56 S9        30.07F WCI  28
6HR MIN TEMP:  31; 6HR MAX TEMP:  39;

KIRKSVILLE     CLOUDY    33  23  66 SW14      30.05F WCI  23
6HR MIN TEMP:  29; 6HR MAX TEMP:  36;


$$
MOZ066>068-077>081-088>096-101>105-190100-
...SOUTHWEST MISSOURI...

CITY           SKY/WX    TMP DP  RH WIND       PRES   REMARKS
SPRINGFIELD    CLEAR     35  20  54 S8        30.18S WCI  29
6HR MIN TEMP:  34; 6HR MAX TEMP:  42;

JOPLIN         CLEAR     36  22  56 S12       30.18S WCI  28
6HR MIN TEMP:  34; 6HR MAX TEMP:  42;

BRANSON        PTCLDY    39  12  33 CALM      30.22F

$$
MOZ032>034-039>042-045>050-055>058-069>072-190100-
...CENTRAL MISSOURI...

CITY           SKY/WX    TMP DP  RH WIND       PRES   REMARKS
COLUMBIA       CLEAR     37  17  44 SW13      30.14S WCI  29
6HR MIN TEMP:  34; 6HR MAX TEMP:  43;

JEFFERSON CITY LGT RAIN  42  17  36 SW7       30.16S
6HR MIN TEMP:  36; 6HR MAX TEMP:  45; 6HR PCP: TRACE;

ROLLA          CLEAR     37  19  48 S12       30.17S WCI  29
6HR MIN TEMP:  35; 6HR MAX TEMP:  44;

SEDALIA        CLEAR     38  23  55 SW12      30.13F
6HR MIN TEMP:  34; 6HR MAX TEMP:  42;

WHITEMAN AFB   PTCLDY    36  19  51 SW21      30.07F WCI  24
WARRENSBURG    CLOUDY    36  21  55 S14G20    30.11F WCI  27
OSAGE BEACH    CLEAR     38  21  50 S9        30.18S

$$
MOZ051-052-059>065-190100-
...EAST CENTRAL MISSOURI...

CITY           SKY/WX    TMP DP  RH WIND       PRES   REMARKS
ST LOUIS INTL  PTCLDY    41  15  35 SW8       30.17S
6HR MIN TEMP:  38; 6HR MAX TEMP:  46;

SPIRIT OF STL  PTCLDY    36  17  46 S6        30.16S
6HR MIN TEMP:  36; 6HR MAX TEMP:  47;

ST CHARLES     CLEAR     37  19  48 SW6       30.16S
6HR MIN TEMP:  35; 6HR MAX TEMP:  45;


$$
MOZ072>076-082>087-097>100-106>115-190100-
...SOUTH CENTRAL AND SOUTHEAST MISSOURI...

CITY           SKY/WX    TMP DP  RH WIND       PRES   REMARKS
CAPE GIRARDEAU FAIR      25  17  72 S12G20    30.32F WCI  14
6HR MIN TEMP:  25; 6HR MAX TEMP:  29;

FARMINGTON     CLEAR     36  15  42 S10       30.22S WCI  28
6HR MIN TEMP:  36; 6HR MAX TEMP:  44;

POPLAR BLUFF   FAIR      29  21  72 S8        30.32F WCI  21
6HR MIN TEMP:  27; 6HR MAX TEMP:  34;

WEST PLAINS    CLEAR     33  13  43 S3        30.23F
6HR MIN TEMP:  33; 6HR MAX TEMP:  39;


$$


USA.gov is the U.S. government's official web portal to all federal, state and local government web resources and services.